Regional Weather Roundup
Issued by NWS

Home | Current Version | Previous Version | Graphics & Text | Print | Product List | Glossary On
Versions: 1 2 3 4 5 6 7 8 9 10 11 12 13 14 15 16 17 18 19 20 21 22 23 24 25 26 27 28 29 30 31 32 33 34 35 36 37 38 39 40 41 42 43 44 45 46 47 48 49 50
000
ASUS43 KBIS 190410
RWRND

NORTH DAKOTA REGIONAL WEATHER ROUNDUP
NATIONAL WEATHER SERVICE BISMARCK ND
1000 PM CST THU JAN 18 2018

NOTE: "FAIR" INDICATES FEW OR NO CLOUDS BELOW 12,000 FEET WITH NO
SIGNIFICANT WEATHER AND/OR OBSTRUCTIONS TO VISIBILITY.


NDZ001>003-009>011-017-190500-
NORTHWEST NORTH DAKOTA

CITY           SKY/WX    TMP DP  RH WIND       PRES   REMARKS
WILLISTON      CLOUDY    53  30  41 SW12      29.58F
MINOT          CLOUDY    41  30  65 SW20      29.51F
MINOT AFB      CLOUDY    39  30  70 NW18      29.53R
$$

NDZ018>021-031>035-040>046-190500-
SOUTHWEST NORTH DAKOTA

CITY           SKY/WX    TMP DP  RH WIND       PRES   REMARKS
BISMARCK       CLOUDY    27  24  89 CALM      29.63F
DICKINSON      CLOUDY    39  28  64 W14       29.60F
GARRISON         N/A     34  28  79 SW6       29.57F
HETTINGER ARPT CLOUDY    36  27  69 W8        29.68F
$$

NDZ004>008-012>016-024-026-027-054-190500-
NORTHEAST NORTH DAKOTA

CITY           SKY/WX    TMP DP  RH WIND       PRES   REMARKS
GRAND FORKS    MOCLDY    27  23  85 S10       29.56F WCI  17
GRND FRKS AFB  FAIR      25  21  84 S7        29.54F WCI  17
DEVILS LAKE    FAIR      31  26  82 SW10      29.53F
$$

NDZ022-023-025-028>030-036>039-047>053-190500-
SOUTHEAST NORTH DAKOTA

CITY           SKY/WX    TMP DP  RH WIND       PRES   REMARKS
FARGO          FAIR      30  26  85 S12       29.62F
JAMESTOWN      CLOUDY    35  27  72 SW14      29.59S
$$




USA.gov is the U.S. government's official web portal to all federal, state and local government web resources and services.